Weather in Erzin

Russia / Tyva Republic     50°15′38″N   95°09′33″E
temp.,
°C
wind,
m/s
gust,
m/s
humid.,
%
clouds,
%
prec.,
mm/h
press.,
hPa
HPBL,
m
5 march, fri
fri501:00−17e23720 0.0 103420
04:00−17e34670 0.0 103322
07:00−17ese34640 0.0 103322
10:00−12se24680 0.0 1030162
13:00−7sse386217 0.0 1028451
16:00−6s2576100 0.0 1025227
19:00−11w2278100 0.0 102821
22:00−12sse2292100 0.1 103027
6 march, sat
sat601:00−16e229699 0.1 103320
04:00−16e22812 0.0 103420
07:00−16e23701 0.0 103620
10:00−10ese11710 0.0 103476
13:00−7sw12730 0.0 1030243
16:00−7nw11850 0.0 1027107
19:00−14nnw11920 0.0 102821
22:00−16ene11880 0.0 102820
7 march, sun
sun701:00−16ene11721 0.0 102820
04:00−17ese11670 0.0 102720
07:00−17e11660 0.0 102820
10:00−12ssw11681 0.0 102737
13:00−9w116624 0.0 1026199
16:00−8nw228122 0.0 1024112
19:00−14wnw128848 0.0 102720
22:00−16n0094100 0.0 102920
8 march, mon
mon801:00−18e009568 0.0 103020
04:00−17e11822 0.0 103020
07:00−17e11741 0.0 103220
10:00−12wsw11740 0.0 103035
13:00−9wnw11750 0.0 1027165
16:00−8nw22848 0.0 1025121
19:00−15nw11944 0.0 102620
22:00−17nne00970 0.0 102720
9 march, tue
tue901:00−17ne01913 0.0 102620
04:00−17wnw11780 0.0 102720
07:00−18ne008114 0.0 102920
10:00−12wsw1176100 0.0 103046
13:00−8w116796 0.0 1029191
16:00−8wnw117971 0.0 1028163
19:00−14ne008765 0.0 102921
22:00−14ene11811 0.0 103021